Weather History for KPUC - March, 2013

Change the Weather History Date:

Tuesday, March 5, 2013

  Actual Average Record
Temperature  
Mean Temperature 30 °F -  
Max Temperature 45 °F 43 °F 66 °F (1986)
Min Temperature 15 °F 22 °F 8 °F (1997)
Degree Days  
Heating Degree Days 35    
Moisture  
Dew Point 6 °F    
Average Humidity 38    
Maximum Humidity 61    
Minimum Humidity 18    
Precipitation  
Precipitation 0.00 in - - ()
Sea Level Pressure  
Sea Level Pressure 30.31 in    
Wind  
Wind Speed 5 mph (NE)    
Max Wind Speed 9 mph    
Max Gust Speed -    
Visibility 10 miles    
Events      
Averages and records for this station are not official NWS values.
T = Trace of Precipitation, MM = Missing Value Source: NWS Daily Summary

Daily Weather History Graph

Daily Weather History Graph

Search for Another Location

Airport or City:

Trip Planner

Search our weather history database for the weather conditions in past years. The results will help you decide how hot, cold, wet, or windy it might be!

Date:

Astronomy

Mar. 05, 2013 Rise Set
Actual Time 6:49 AM MST 6:19 PM MST
Civil Twilight 6:22 AM MST 6:46 PM MST
Nautical Twilight 5:51 AM MST 7:17 PM MST
Astronomical Twilight 5:20 AM MST 7:49 PM MST
Moon 2:04 AM MST (3/5) 12:03 PM MST (3/5)
Length of Visible Light 12h 24m
Length of Day
11h 30m
Last Quarter, 40% of the Moon is Illuminated
Mar 5
Last Quarter
Mar 11
New
Mar 19
First Quarter
Mar 27
Full
Apr 2
Last Quarter

Hourly Weather History & Observations

Time (MST) Temp. Windchill Dew Point Humidity Pressure Visibility Wind Dir Wind Speed Gust Speed Precip Events Conditions
12:53 AM 21.0 °F 12.4 °F 3.9 °F 48% 30.31 in 10.0 mi North 6.9 mph - N/A   Clear
1:53 AM 19.4 °F 11.5 °F 5.0 °F 54% 30.22 in 10.0 mi NNE 5.8 mph - N/A   Clear
2:53 AM 18.0 °F - 3.0 °F 52% 30.35 in 10.0 mi Calm Calm - N/A   Clear
3:53 AM 19.0 °F 10.0 °F 5.0 °F 54% 30.36 in 10.0 mi NNE 6.9 mph - N/A   Clear
4:53 AM 19.4 °F 9.5 °F 3.2 °F 49% 30.24 in 10.0 mi NE 8.1 mph - N/A   Clear
5:53 AM 15.1 °F 7.7 °F 3.9 °F 61% 30.41 in 10.0 mi North 4.6 mph - N/A   Clear
6:53 AM 18.0 °F 8.7 °F 5.0 °F 57% 30.43 in 10.0 mi North 6.9 mph - N/A   Clear
7:53 AM 27.0 °F 23.0 °F 8.1 °F 45% 30.41 in 10.0 mi NNE 3.5 mph - N/A   Clear
8:53 AM 30.0 °F - 6.1 °F 36% 30.42 in 10.0 mi Calm Calm - N/A   Clear
9:53 AM 33.1 °F - 3.9 °F 29% 30.42 in 10.0 mi Calm Calm - N/A   Clear
10:53 AM 37.0 °F 34.5 °F 3.9 °F 25% 30.40 in 10.0 mi South 3.5 mph - N/A   Clear
11:53 AM 39.0 °F 35.7 °F 3.9 °F 23% 30.39 in 10.0 mi Variable 4.6 mph - N/A   Clear
12:53 PM 41.0 °F 36.4 °F 3.9 °F 21% 30.36 in 10.0 mi SE 6.9 mph - N/A   Clear
1:53 PM 43.0 °F 39.5 °F 3.9 °F 20% 30.31 in 10.0 mi Variable 5.8 mph - N/A   Clear
2:53 PM 45.0 °F 40.6 °F 5.0 °F 19% 30.28 in 10.0 mi South 8.1 mph - N/A   Clear
3:53 PM 45.0 °F 42.6 °F 3.9 °F 18% 30.25 in 10.0 mi SSE 4.6 mph - N/A   Clear
4:53 PM 44.1 °F - 3.0 °F 18% 30.22 in 10.0 mi Calm Calm - N/A   Clear
5:53 PM 42.1 °F 40.2 °F 3.9 °F 21% 30.24 in 10.0 mi ESE 3.5 mph - N/A   Clear
6:53 PM 37.0 °F 33.3 °F 7.0 °F 29% 30.25 in 10.0 mi East 4.6 mph - N/A   Clear
7:53 PM 30.0 °F 24.1 °F 10.0 °F 43% 30.24 in 10.0 mi NE 5.8 mph - N/A   Clear
8:53 PM 30.0 °F 21.7 °F 10.9 °F 45% 30.24 in 10.0 mi NNE 9.2 mph - N/A   Clear
9:53 PM 28.9 °F 20.4 °F 10.9 °F 47% 30.23 in 10.0 mi NNE 9.2 mph - N/A   Clear
10:53 PM 28.9 °F 20.4 °F 10.9 °F 47% 30.21 in 10.0 mi North 9.2 mph - N/A   Clear
11:53 PM 28.0 °F 19.3 °F 10.9 °F 49% 30.18 in 10.0 mi NNE 9.2 mph - N/A   Clear